Lapse_Rate
3.9 3.9 4.5 6.3 4.0 6.4 6.7 6.5 4.7 5.0 6.9 6.5 7.1 6.2 7.2 7.6 7.3 7.6 8.1 8.5 9.2 9.3 9.3 9.2 9.1 9.3 9.4 9.5 9.5 9.4 9.1 9.1 8.5 9.0 9.3 9.4 8.3 7.9 8.1 7.6 9.0 9.6 9.3
6.7 6.5 7.6 7.4 7.4 6.4 6.2 5.9 5.3 4.9 4.6 5.1 5.5 6.3 6.2 5.6 6.5 6.0 8.3 9.1 9.2 9.1 9.2 9.2 9.2 9.4 8.8 9.0 9.4 8.6 8.7 8.8 8.5 8.1 8.7 9.2 8.9 8.2 6.7 5.8 8.0 9.5 9.6
7.3 8.9 8.0 6.7 5.8 4.7 4.7 5.8 3.8 4.3 5.4 6.7 6.7 6.1 4.8 4.9 5.8 4.5 6.0 7.2 7.6 9.1 9.3 9.1 9.1 9.2 9.1 9.3 9.1 9.1 9.2 9.3 9.2 9.3 8.8 9.2 9.3 9.4 8.7 7.1 6.1 6.0 8.6
9.2 9.1 8.6 6.9 5.8 5.6 6.8 7.1 7.0 6.7 6.7 6.5 6.1 5.1 5.5 6.5 5.5 5.5 6.1 9.2 8.1 9.1 9.4 9.3 9.2 9.1 8.3 8.8 9.2 9.0 9.1 9.0 9.1 9.4 9.3 9.2 9.3 8.9 9.3 8.9 8.7 6.3 5.8
9.1 9.0 7.5 8.4 8.9 8.5 8.4 8.3 7.1 6.0 5.1 5.2 5.4 5.1 5.1 6.0 6.9 6.5 7.9 8.8 8.8 8.4 8.4 9.1 8.4 8.1 6.3 6.8 8.6 8.8 8.6 8.9 9.2 9.3 9.4 9.5 9.3 9.0 8.4 9.0 9.0 8.8 8.3
9.1 8.4 7.3 7.3 7.9 8.5 8.0 8.1 7.7 7.1 6.1 6.3 7.7 8.2 8.8 9.1 3.3 3.4 4.5 7.1 7.3 7.6 8.5 8.8 8.8 8.5 8.0 6.0 6.2 6.2 7.1 8.3 8.5 8.9 9.4 9.0 7.6 8.4 9.1 9.1 9.0 8.9 8.6
7.1 8.4 7.4 7.9 7.2 7.3 7.6 7.2 6.8 6.6 6.7 7.0 7.1 7.3 6.8 7.3 3.6 2.8 3.1 6.2 6.1 6.3 6.9 7.9 9.1 9.8 8.5 9.4 8.5 6.6 6.1 5.8 6.4 8.1 8.4 8.5 8.1 8.1 8.2 7.9 8.2 8.4 8.6
7.5 7.9 7.5 7.5 7.7 7.8 7.9 7.5 7.1 6.6 6.3 6.1 6.3 6.0 5.9 6.6 3.0 2.6 3.0 4.8 6.4 7.9 8.5 8.9 9.2 9.2 9.3 9.0 9.3 9.3 9.2 9.4 9.4 8.9 7.7 8.3 8.4 8.8 8.2 8.4 8.0 7.9 8.7
8.7 8.4 7.3 7.1 7.0 6.9 6.5 5.9 5.8 5.8 6.2 6.7 8.2 7.8 7.1 6.9 5.2 4.0 3.1 5.9 9.1 9.2 9.4 9.4 9.5 9.5 8.1 4.5 8.1 8.8 9.0 9.2 8.9 6.3 5.9 5.2 5.2 4.5 6.3 7.5 8.2 7.1 9.2
8.8 8.2 6.8 6.6 6.8 7.4 7.1 7.0 6.7 7.0 9.1 7.3 7.9 8.6 8.3 8.2 7.8 5.5 5.1 8.4 9.1 9.4 9.4 9.4 8.3 7.6 4.0 4.0 7.8 8.4 8.2 8.9 9.1 9.2 8.3 8.5 6.8 7.6 4.6 6.8 8.8 8.9 9.3
9.2 9.1 8.1 7.3 8.5 7.4 7.0 7.2 6.9 8.3 7.0 9.1 9.1 9.3 8.8 9.1 9.0 5.5 5.6 8.4 9.5 9.4 9.3 9.5 9.7 3.5 2.9 3.4 3.7 6.5 6.9 6.8 6.4 8.0 9.5 10.0 10.1 9.9 8.9 8.6 7.3 8.9 9.5
8.6 8.9 8.0 7.1 7.5 9.2 7.3 8.0 8.0 9.1 8.9 8.9 8.9 9.2 9.6 9.4 8.2 5.0 5.4 5.8 7.6 9.4 9.4 9.7 9.6 5.6 4.5 4.0 4.5 5.7 5.2 5.5 9.4 9.6 9.9 10.0 9.9 10.3 9.2 8.4 8.4 7.3 7.5
8.9 9.1 9.1 9.0 9.2 8.8 8.5 8.9 9.2 9.1 9.1 9.1 9.1 9.2 9.3 9.6 9.7 6.3 6.4 6.7 8.2 9.1 9.8 9.3 7.9 6.7 6.2 6.7 6.6 5.4 5.0 8.6 9.3 9.4 9.7 9.7 9.8 10.3 8.0 8.2 6.4 6.0 7.2
9.1 9.0 9.3 9.2 8.9 9.3 9.6 9.6 9.5 9.4 9.2 9.3 9.2 9.2 9.4 9.5 9.6 9.7 9.7 9.7 9.3 9.5 9.5 9.2 8.1 7.2 7.1 6.9 7.4 7.9 8.5 9.8 9.6 9.5 9.8 10.1 10.0 9.3 8.8 9.4 8.6 8.4 6.7
9.2 9.1 9.2 9.3 9.2 9.2 9.1 9.5 9.4 9.5 8.8 9.3 9.3 9.5 9.3 9.2 9.3 6.0 6.5 8.9 8.4 8.2 7.5 7.7 8.7 9.2 9.4 9.3 9.3 9.5 9.5 9.1 9.5 8.9 8.8 8.5 9.2 8.2 8.1 8.6 7.7 7.6 6.2
9.1 9.3 9.2 9.4 9.5 9.4 9.4 9.4 7.0 4.1 3.5 2.6 2.7 4.9 9.4 7.1 5.3 4.1 3.1 3.2 3.4 4.3 6.4 7.5 8.3 8.9 9.2 9.2 9.0 9.1 9.2 9.2 8.3 9.3 9.3 8.0 7.1 7.8 7.9 9.2 8.4 7.4 8.3
9.1 9.2 9.5 8.9 9.5 9.3 9.3 9.2 9.0 9.4 1.9 1.4 0.3 0.4 1.6 3.2 2.1 2.9 2.2 2.5 3.0 4.2 8.5 8.6 8.5 8.8 8.8 9.0 9.1 9.1 9.0 9.3 8.6 8.8 8.2 8.5 8.6 6.5 7.0 7.9 8.3 8.6 7.6
9.4 7.4 9.3 9.4 9.5 9.4 9.4 9.3 9.3 9.2 9.0 9.2 7.6 3.7 2.7 2.2 2.5 3.1 2.9 4.0 6.7 7.5 7.9 7.8 8.0 8.3 8.5 8.6 8.5 9.1 8.9 8.8 8.8 8.3 9.1 8.5 9.2 8.1 6.1 7.3 7.6 6.7 7.0
9.4 9.6 9.6 9.7 9.7 9.0 9.5 9.5 9.5 9.3 9.3 9.3 9.2 8.4 8.2 5.8 4.1 3.8 3.8 6.7 6.5 6.4 7.3 7.7 7.7 7.8 8.0 7.9 8.3 8.8 8.5 8.3 8.5 8.8 8.8 8.6 7.8 8.8 8.9 8.3 7.9 6.0 5.9
9.6 8.4 6.4 9.6 9.6 9.5 9.5 9.5 9.4 9.2 9.2 9.0 9.0 9.1 9.0 7.3 6.7 6.7 6.4 5.8 5.6 5.7 5.9 6.1 6.4 7.0 7.3 7.3 7.5 7.2 7.2 7.4 7.7 8.1 8.9 8.2 7.5 8.8 9.0 9.1 9.1 8.4 8.1
9.7 9.7 9.0 9.6 9.6 9.6 9.6 9.4 9.3 9.3 8.9 9.0 8.8 8.4 4.7 6.2 6.6 6.3 6.1 6.1 5.7 5.5 5.2 5.2 5.2 5.6 6.2 6.6 7.0 7.3 7.3 7.8 8.3 8.8 8.1 7.0 7.0 7.4 9.1 9.1 9.2 8.8 8.9
9.7 9.6 9.6 9.5 9.6 9.5 9.4 9.6 9.3 9.3 9.3 9.0 8.7 7.5 5.1 8.0 8.7 7.9 7.0 6.3 6.3 6.0 5.7 5.2 4.8 5.0 5.3 5.6 5.9 6.5 6.9 7.2 7.4 7.6 7.6 7.7 7.2 6.6 8.0 7.9 8.1 8.9 8.8
9.7 9.6 9.6 9.6 9.5 8.3 9.5 9.4 9.4 9.5 9.4 9.3 9.2 8.9 7.5 7.1 7.3 6.9 6.5 6.5 6.6 6.6 6.6 6.4 5.8 5.2 5.0 5.1 5.7 5.8 6.0 6.6 7.0 7.1 6.9 6.7 6.3 5.7 6.4 6.1 6.0 6.3 7.9
9.8 9.7 9.6 9.6 9.4 9.4 9.5 9.3 9.5 7.9 8.7 9.2 9.3 8.7 7.7 7.3 6.7 6.7 6.7 6.2 6.4 6.8 7.1 7.0 6.7 6.3 5.9 5.8 5.3 5.1 5.1 6.0 6.8 6.8 7.0 6.8 6.6 6.3 6.4 6.1 6.1 7.1 7.2
9.9 9.7 9.6 9.5 9.4 9.4 9.4 9.3 9.1 9.2 9.0 8.8 8.7 9.1 7.9 7.0 6.5 6.2 5.7 5.4 5.9 6.7 7.1 6.9 6.8 7.0 7.0 6.6 6.1 5.6 5.0 3.4 4.8 5.1 6.5 6.6 5.9 5.7 5.6 5.7 5.8 6.5 6.8
9.8 9.7 9.6 9.6 9.5 9.5 9.5 9.4 9.4 9.1 8.6 8.7 8.0 8.1 7.1 6.5 6.1 5.5 5.1 4.9 6.0 6.6 7.0 7.1 7.2 7.3 7.1 7.0 6.7 5.3 2.2 0.9 3.4 1.0 5.2 6.0 5.5 4.5 4.3 5.2 5.4 5.1 6.0
Wind_Speed
8 6 4 3 4 4 4 5 7 7 6 4 5 3 3 6 5 3 4 2 2 4 5 6 6 6 7 9 9 9 7 7 11 12 11 12 11 10 10 12 12 14 14
5 5 4 4 3 4 3 5 6 6 4 4 7 6 5 5 5 5 6 6 4 5 7 6 7 7 7 8 10 9 10 10 9 12 11 10 10 8 8 8 10 17 12
7 7 7 6 4 3 3 7 4 6 6 6 6 8 9 7 3 3 3 6 5 6 6 6 8 8 7 8 8 10 11 9 12 11 11 10 8 9 7 6 7 10 15
7 6 5 4 4 4 2 1 1 3 2 3 2 3 5 6 5 6 4 7 7 6 7 8 8 9 9 10 9 9 11 11 12 12 11 11 10 9 8 8 9 5 7
3 4 6 5 5 5 6 7 6 6 4 1 1 2 5 6 3 4 8 8 9 7 8 11 12 8 6 7 10 12 10 11 11 12 12 11 11 9 8 8 8 7 7
3 5 4 5 4 6 7 7 6 6 6 4 2 3 4 2 8 10 8 6 9 10 13 13 12 13 13 16 19 19 15 11 12 13 13 14 15 11 9 9 10 10 10
3 5 4 5 7 5 5 5 4 4 3 2 3 4 6 3 8 9 10 8 10 11 12 14 15 14 12 14 14 10 15 19 19 15 15 14 16 14 12 12 11 11 10
5 5 5 5 5 5 5 5 4 3 3 4 6 7 7 7 8 9 10 11 12 12 12 13 13 13 13 13 14 15 14 14 14 11 14 15 15 15 15 13 13 13 11
4 4 4 4 4 4 4 4 4 5 4 5 5 6 7 8 4 3 4 10 12 12 12 12 12 13 12 7 11 16 16 14 14 16 19 18 19 18 16 10 12 11 13
3 3 3 4 4 4 4 4 4 4 4 6 6 7 7 9 6 3 3 9 12 11 12 12 13 13 4 9 9 11 13 15 15 16 17 17 15 17 20 16 13 15 13
2 2 3 3 1 3 4 4 5 5 6 5 6 7 9 5 5 8 4 7 9 11 12 11 11 11 9 9 9 12 12 11 12 15 15 14 15 15 13 13 16 15 15
1 2 2 3 4 4 5 5 6 6 7 6 6 7 7 6 3 8 7 5 8 10 12 12 12 18 21 15 14 18 17 17 15 14 14 14 14 13 12 10 13 16 15
1 2 3 4 4 6 7 7 8 6 7 7 8 9 9 8 9 4 6 1 7 11 12 16 18 16 15 16 19 17 17 13 13 14 13 13 14 12 13 8 6 10 17
3 4 5 6 5 7 6 8 7 8 8 8 9 10 10 10 10 8 10 13 15 14 16 13 18 22 27 26 19 15 14 14 14 14 14 13 13 13 11 11 11 9 10
4 5 6 7 5 7 8 7 8 8 6 9 10 10 11 11 11 9 10 12 10 11 13 11 12 12 12 13 11 11 11 11 12 10 10 11 12 12 10 9 9 8 8
6 6 6 7 8 8 8 9 7 13 11 13 16 14 11 9 8 6 10 13 14 16 10 11 12 12 11 10 10 10 10 14 11 12 12 10 9 12 12 12 9 9 11
6 7 7 8 8 9 9 10 11 9 13 17 15 12 7 14 12 13 15 15 15 14 13 11 11 12 11 11 10 10 9 11 10 11 8 11 10 7 12 12 10 11 9
7 8 9 8 9 10 10 11 11 11 12 12 4 2 4 1 9 15 16 16 11 10 9 10 10 10 11 11 10 10 10 9 9 9 10 9 13 9 8 12 10 8 10
7 7 7 9 9 9 11 11 11 12 12 13 13 15 15 13 15 16 12 9 10 10 10 10 9 10 9 9 11 10 9 9 9 9 9 9 12 11 11 11 11 12 11
8 4 5 8 9 10 10 11 11 12 13 12 11 12 13 12 13 12 11 10 10 10 10 10 10 10 10 10 9 9 9 9 10 9 11 10 9 12 13 14 13 12 12
9 9 3 8 9 10 10 11 12 12 10 10 11 12 15 11 12 11 11 10 10 10 11 11 10 10 10 10 9 9 10 10 9 11 9 8 9 12 14 13 14 13 10
10 7 8 9 9 9 11 11 9 9 10 10 11 12 16 12 12 11 12 12 12 11 10 11 10 10 10 10 10 9 10 10 10 9 9 9 9 10 11 9 10 13 12
9 8 8 8 8 10 9 7 8 9 10 12 11 11 11 11 12 12 13 13 13 13 12 11 11 11 10 10 10 10 10 10 10 9 9 9 8 7 5 5 6 10 11
9 8 8 8 7 7 7 8 9 10 9 12 13 10 10 13 14 15 14 14 14 14 13 13 12 14 12 12 10 9 10 10 9 9 12 9 8 7 4 5 7 11 9
8 7 7 8 8 6 7 8 9 11 10 11 10 13 11 14 14 15 15 15 15 15 17 16 13 16 18 18 17 16 14 13 11 10 7 9 6 7 7 7 9 10 11
7 7 7 6 5 6 7 9 11 10 11 12 12 8 12 13 14 15 15 16 16 18 20 14 15 21 21 16 17 18 14 13 13 11 9 8 7 6 6 9 12 8 11
Wind_Direction
61 82 64 77 49 21 350 325 349 34 301 263 166 111 204 165 172 230 287 211 255 292 307 279 283 307 297 307 307 303 276 271 286 294 297 292 299 305 303 312 279 250 248
115 111 109 157 184 200 251 283 320 94 76 215 216 227 227 199 198 171 275 321 337 284 284 291 288 291 320 293 285 296 313 308 258 278 285 292 285 288 281 292 286 275 274
84 82 78 55 33 12 327 256 238 234 248 284 248 258 225 199 174 294 266 281 300 278 276 291 284 289 285 291 305 299 296 304 303 292 288 277 284 291 258 252 263 281 277
112 121 110 97 108 131 176 79 314 323 282 172 252 310 302 311 333 286 300 274 273 264 277 277 272 272 269 273 277 292 291 292 289 277 270 269 260 258 262 258 265 241 270
122 65 61 131 139 70 65 68 79 86 80 29 331 285 244 268 260 300 265 275 279 288 284 276 272 282 311 280 285 283 286 285 289 289 285 277 269 259 248 265 261 241 262
93 72 63 60 74 61 58 70 74 71 48 23 300 270 261 320 64 49 16 320 306 294 281 281 275 278 266 243 243 249 256 270 272 277 281 283 291 297 283 278 280 285 264
101 67 55 66 62 51 49 64 59 44 13 344 327 324 325 343 72 47 13 318 305 295 293 285 279 276 286 293 291 262 246 238 241 254 262 265 278 287 294 294 283 284 277
108 75 43 50 49 39 39 31 29 6 349 332 329 328 320 313 49 23 354 308 289 280 275 274 280 285 287 287 289 289 288 288 278 262 248 256 257 261 266 267 268 274 272
100 83 57 50 42 28 22 12 5 347 335 334 331 317 309 303 333 285 292 307 297 300 296 291 291 291 298 16 303 288 283 280 287 276 274 274 269 258 247 261 265 257 246
72 59 46 43 41 27 11 7 354 342 356 329 341 320 316 305 292 149 285 318 315 310 305 302 303 285 120 28 301 287 283 282 291 297 306 296 271 260 247 245 250 258 266
52 64 54 28 342 54 5 1 344 340 329 313 311 315 288 313 335 171 176 311 319 316 305 297 292 50 6 314 297 294 277 279 289 289 284 278 272 265 244 227 234 239 245
58 52 40 20 351 14 339 331 324 301 290 304 293 304 323 332 307 125 173 237 316 307 304 301 302 334 326 312 302 290 289 281 276 268 263 266 266 262 250 255 240 230 234
344 357 347 339 334 332 316 308 294 296 305 316 320 324 318 325 323 176 197 182 313 321 302 299 296 290 285 286 278 289 292 280 273 274 263 258 265 266 280 261 255 231 232
331 315 299 302 308 296 305 300 311 316 319 317 326 316 316 314 310 329 334 323 322 314 315 315 307 289 269 262 271 269 263 260 252 257 258 268 264 270 279 270 271 265 237
314 307 300 284 282 311 277 302 306 297 302 303 305 308 309 306 313 342 306 307 306 296 302 298 291 290 289 285 282 283 285 283 279 274 286 287 273 275 267 256 262 276 266
312 296 333 312 299 304 307 307 258 232 226 217 237 249 279 292 282 297 279 268 259 262 282 281 278 278 278 279 272 267 270 278 284 282 278 281 279 281 269 267 269 268 270
313 307 316 314 308 298 306 310 310 312 229 232 233 240 239 264 289 283 277 276 283 282 285 285 283 287 289 294 292 288 277 271 283 283 272 285 280 277 294 259 257 256 267
307 268 271 303 318 313 311 321 304 302 316 318 310 193 49 320 324 320 311 311 304 288 283 280 277 278 284 288 295 286 283 282 274 281 286 283 281 278 281 269 248 240 255
292 299 323 318 308 307 295 300 319 319 318 324 341 339 332 343 315 301 304 307 304 301 297 288 279 274 270 273 279 285 284 278 273 271 273 281 286 283 274 266 252 226 240
308 263 254 300 311 300 326 325 325 337 339 348 332 322 326 321 317 312 308 303 298 292 293 292 289 282 274 271 272 271 273 273 266 264 269 280 274 279 262 260 259 256 242
331 313 299 295 329 333 326 346 342 336 336 321 322 313 307 309 305 303 301 296 292 288 285 283 283 284 278 270 266 264 265 266 263 271 264 254 260 274 268 269 254 256 257
303 315 330 327 331 337 357 337 336 322 326 317 316 313 304 308 308 304 300 297 293 287 281 276 272 271 272 270 266 260 260 261 262 256 260 262 264 269 273 286 278 259 263
299 335 327 335 332 4 337 335 327 321 315 317 315 316 315 309 306 305 299 295 294 290 287 279 269 265 261 259 257 250 254 254 253 252 260 250 263 279 291 306 297 295 263
318 338 338 327 348 338 340 332 319 313 316 318 319 314 316 312 307 305 303 298 294 289 285 282 276 267 263 257 254 248 248 250 251 251 251 259 256 263 260 290 283 286 290
339 341 331 327 340 346 323 320 320 328 321 311 315 327 327 315 310 309 305 301 298 294 289 283 276 269 266 254 247 246 245 237 251 265 252 254 245 259 265 266 272 287 289
337 335 327 328 337 320 321 340 326 321 311 307 312 328 331 320 314 311 310 306 303 301 303 297 282 271 267 263 249 241 240 229 239 235 248 256 246 245 248 257 265 269 278